TimePST,TemperatureF,Dew PointF,Humidity,Sea Level PressureIn,VisibilityMPH,Wind Direction,Wind SpeedMPH,Gust SpeedMPH,PrecipitationIn,Events,Conditions,WindDirDegrees,DateUTC
12:54 AM,73.0,23.0,15,30.09,-9999.0,ENE,16.1,-,N/A,,Clear,60,2013-12-16 08:54:00
1:54 AM,73.0,21.9,15,30.09,-9999.0,ENE,16.1,-,N/A,,Clear,60,2013-12-16 09:54:00
2:54 AM,73.9,21.9,14,30.08,-9999.0,ENE,15.0,-,N/A,,Clear,60,2013-12-16 10:54:00
3:54 AM,73.0,21.9,15,30.07,-9999.0,ENE,13.8,-,N/A,,Clear,60,2013-12-16 11:54:00
4:54 AM,73.0,21.9,15,30.06,-9999.0,ENE,15.0,-,N/A,,Clear,60,2013-12-16 12:54:00
5:54 AM,73.0,21.0,14,30.07,7.0,ENE,15.0,-,N/A,,Mostly Cloudy,70,2013-12-16 13:54:00
6:54 AM,73.9,19.9,13,30.09,7.0,ENE,16.1,-,N/A,,Mostly Cloudy,70,2013-12-16 14:54:00
7:54 AM,78.1,19.9,11,30.10,7.0,ENE,17.3,25.3,N/A,,Scattered Clouds,70,2013-12-16 15:54:00
8:54 AM,80.1,19.9,11,30.12,7.0,ENE,18.4,-,N/A,,Mostly Cloudy,70,2013-12-16 16:54:00
9:54 AM,84.0,19.9,9,30.13,7.0,East,17.3,25.3,N/A,,Mostly Cloudy,80,2013-12-16 17:54:00
10:54 AM,80.1,39.9,24,30.12,7.0,SW,6.9,-,N/A,,Mostly Cloudy,230,2013-12-16 18:54:00
11:54 AM,77.0,39.9,26,30.09,7.0,West,6.9,-,N/A,,Mostly Cloudy,260,2013-12-16 19:54:00
12:54 PM,71.1,48.0,44,30.09,7.0,WNW,9.2,-,N/A,,Mostly Cloudy,290,2013-12-16 20:54:00
1:54 PM,78.1,46.0,32,30.06,7.0,Calm,Calm,-,N/A,,Mostly Cloudy,0,2013-12-16 21:54:00
2:54 PM,73.0,46.9,39,30.05,7.0,West,3.5,-,N/A,,Mostly Cloudy,270,2013-12-16 22:54:00
3:54 PM,70.0,41.0,35,30.06,7.0,West,11.5,-,N/A,,Mostly Cloudy,280,2013-12-16 23:54:00
4:54 PM,66.0,44.1,45,30.06,-9999.0,Calm,Calm,-,N/A,,Clear,0,2013-12-17 00:54:00
5:54 PM,64.9,39.9,40,30.07,-9999.0,Variable,4.6,-,N/A,,Clear,0,2013-12-17 01:54:00
6:54 PM,66.0,36.0,33,30.08,-9999.0,North,4.6,-,N/A,,Clear,10,2013-12-17 02:54:00
7:54 PM,63.0,41.0,45,30.09,-9999.0,North,5.8,-,N/A,,Clear,10,2013-12-17 03:54:00
8:54 PM,64.9,39.0,39,30.08,-9999.0,North,9.2,-,N/A,,Clear,10,2013-12-17 04:54:00
9:54 PM,66.9,33.1,28,30.09,-9999.0,North,-9999.0,-,N/A,,Clear,0,2013-12-17 05:54:00
10:54 PM,72.0,28.0,20,30.09,-9999.0,NE,9.2,-,N/A,,Clear,40,2013-12-17 06:54:00
11:54 PM,75.0,25.0,16,30.08,-9999.0,ENE,11.5,-,N/A,,Clear,60,2013-12-17 07:54:00